Caldwell, NJ

8:11 PM EDT on September 16, 2019 (GMT -0400)
Essex County

Weather History for KCDW - May, 2019

Change the Weather History Date:

Saturday, May 18, 2019

  Actual Average Record
Temperature  
Mean Temperature 66 °F -  
Max Temperature 79 °F 72 °F 96 °F (2017)
Min Temperature 52 °F 48 °F 33 °F (1983)
Growing Degree Days 16 (Base 50)    
Moisture  
Dew Point 45 °F    
Average Humidity 53    
Maximum Humidity 87    
Minimum Humidity 20    
Precipitation  
Precipitation 0.00 in - - ()
Sea Level Pressure  
Sea Level Pressure 29.99 in    
Wind  
Wind Speed 2 mph (North)    
Max Wind Speed 10 mph    
Max Gust Speed -    
Visibility 10 miles    
Events      
Averages and records for this station are not official NWS values.
T = Trace of Precipitation, MM = Missing Value Source: NWS Daily Summary

Daily Weather History Graph

Daily Weather History Graph

Search for Another Location

Airport or City:

Astronomy

May. 18, 2019 Rise Set
Actual Time 5:37 AM EDT 8:10 PM EDT
Civil Twilight 5:05 AM EDT 8:42 PM EDT
Nautical Twilight 4:26 AM EDT 9:21 PM EDT
Astronomical Twilight 3:42 AM EDT 10:05 PM EDT
Moon 8:02 PM EDT (5/18) 5:43 AM EDT (5/18)
Length of Visible Light 15h 36m
Length of Day
14h 33m
Full, 100% of the Moon is Illuminated
May 18
Full
May 18
Full
May 26
Last Quarter
Jun 3
New
Jun 10
First Quarter

Hourly Weather History & Observations

Time (EDT) Temp. Dew Point Humidity Pressure Visibility Wind Dir Wind Speed Gust Speed Precip Events Conditions
12:53 AM 63.0 °F 53.1 °F 70% 29.87 in 10.0 mi Calm Calm - N/A   Clear
1:53 AM 57.9 °F 54.0 °F 87% 29.89 in 10.0 mi ENE 3.5 mph - N/A   Clear
2:53 AM 57.9 °F 51.1 °F 78% 29.88 in 10.0 mi Calm Calm - N/A   Clear
3:53 AM 54.0 °F 50.0 °F 86% 29.89 in 10.0 mi Calm Calm - N/A   Clear
4:53 AM 52.0 °F 48.0 °F 86% 29.92 in 10.0 mi Calm Calm - N/A   Clear
5:53 AM 52.0 °F 46.9 °F 83% 29.96 in 10.0 mi Calm Calm - N/A   Clear
6:53 AM 55.9 °F 48.0 °F 75% 29.98 in 10.0 mi Calm Calm - N/A   Clear
7:53 AM 60.1 °F 46.9 °F 62% 30.00 in 10.0 mi NE 3.5 mph - N/A   Clear
8:53 AM 62.1 °F 45.0 °F 53% 30.01 in 10.0 mi NW 4.6 mph - N/A   Clear
9:53 AM 64.9 °F 44.1 °F 47% 30.03 in 10.0 mi Variable 3.5 mph - N/A   Clear
10:53 AM 68.0 °F 37.9 °F 33% 30.03 in 10.0 mi NNW 5.8 mph - N/A   Clear
11:53 AM 70.0 °F 37.9 °F 31% 30.02 in 10.0 mi NW 10.4 mph - N/A   Clear
12:53 PM 72.0 °F 37.0 °F 28% 30.03 in 10.0 mi Variable 6.9 mph - N/A   Clear
1:53 PM 73.0 °F 37.0 °F 27% 30.01 in 10.0 mi Variable 3.5 mph - N/A   Clear
2:53 PM 75.9 °F 37.9 °F 25% 30.00 in 10.0 mi Variable 4.6 mph - N/A   Clear
3:53 PM 77.0 °F 37.9 °F 24% 29.97 in 10.0 mi North 5.8 mph - N/A   Clear
4:53 PM 79.0 °F 37.0 °F 22% 29.98 in 10.0 mi WSW 4.6 mph - N/A   Clear
5:53 PM 79.0 °F 35.1 °F 20% 29.98 in 10.0 mi Variable 3.5 mph - N/A   Clear
6:53 PM 77.0 °F 46.0 °F 33% 29.98 in 10.0 mi Variable 5.8 mph - N/A   Clear
7:53 PM 70.0 °F 48.0 °F 46% 30.01 in 10.0 mi Variable 3.5 mph - N/A   Clear
8:53 PM 64.9 °F 48.9 °F 56% 30.03 in 10.0 mi Variable 3.5 mph - N/A   Clear
9:53 PM 64.0 °F 48.0 °F 56% 30.06 in 10.0 mi Calm Calm - N/A   Clear
10:53 PM 60.1 °F 50.0 °F 69% 30.09 in 10.0 mi Calm Calm - N/A   Clear
11:53 PM 59.0 °F 51.1 °F 75% 30.08 in 10.0 mi East 4.6 mph - N/A   Clear